Weather History for KPGA - July, 2013

Change the Weather History Date:

Thursday, July 18, 2013

  Actual Average Record
Temperature  
Mean Temperature 86 °F -  
Max Temperature 97 °F 95 °F 105 °F (1960)
Min Temperature 75 °F 69 °F 62 °F (1987)
Cooling Degree Days 21    
Growing Degree Days 36 (Base 50)    
Moisture  
Dew Point 55 °F    
Average Humidity 37    
Maximum Humidity 58    
Minimum Humidity 20    
Precipitation  
Precipitation 0.00 in - - ()
Sea Level Pressure  
Sea Level Pressure 29.90 in    
Wind  
Wind Speed 5 mph (SW)    
Max Wind Speed 20 mph    
Max Gust Speed 28 mph    
Visibility 10 miles    
Events      
Averages and records for this station are not official NWS values.
T = Trace of Precipitation, MM = Missing Value Source: NWS Daily Summary

Daily Weather History Graph

Daily Weather History Graph

Search for Another Location

Airport or City:

Trip Planner

Search our weather history database for the weather conditions in past years. The results will help you decide how hot, cold, wet, or windy it might be!

Date:

Astronomy

Jul. 18, 2013 Rise Set
Actual Time 5:20 AM MST 7:43 PM MST
Civil Twilight 4:50 AM MST 8:12 PM MST
Nautical Twilight 4:14 AM MST 8:49 PM MST
Astronomical Twilight 3:33 AM MST 9:29 PM MST
Moon 3:44 PM MST (7/18) 1:12 AM MST (7/18)
Length of Visible Light 15h 22m
Length of Day
14h 22m
Waxing Gibbous, 78% of the Moon is Illuminated
Jul 18
Waxing Gibbous
Jul 22
Full
Jul 29
Last Quarter
Aug 6
New
Aug 14
First Quarter

Hourly Weather History & Observations

Time (MST) Temp. Heat Index Dew Point Humidity Pressure Visibility Wind Dir Wind Speed Gust Speed Precip Events Conditions
12:53 AM 79.0 °F - 57.9 °F 48% 29.91 in 10.0 mi Calm Calm - N/A   Clear
1:53 AM 75.9 °F - 60.1 °F 58% 29.91 in 10.0 mi SSE 4.6 mph - N/A   Clear
2:53 AM 75.9 °F - 59.0 °F 56% 29.92 in 10.0 mi SE 8.1 mph - N/A   Partly Cloudy
3:53 AM 78.1 °F - 57.0 °F 48% 29.92 in 10.0 mi South 5.8 mph - N/A   Clear
4:53 AM 77.0 °F - 57.0 °F 50% 29.92 in 10.0 mi SSW 3.5 mph - N/A   Clear
5:53 AM 77.0 °F - 57.0 °F 50% 29.94 in 10.0 mi South 5.8 mph - N/A   Clear
6:53 AM 80.1 °F 80.6 °F 57.9 °F 47% 29.95 in 10.0 mi ESE 5.8 mph - N/A   Clear
7:53 AM 81.0 °F 81.0 °F 57.0 °F 44% 29.96 in 10.0 mi Calm Calm - N/A   Clear
8:53 AM 84.0 °F 82.9 °F 55.0 °F 37% 29.97 in 10.0 mi Calm Calm - N/A   Clear
9:53 AM 86.0 °F 84.5 °F 55.0 °F 35% 29.95 in 10.0 mi Calm Calm - N/A   Clear
10:53 AM 91.0 °F 89.2 °F 55.9 °F 30% 29.92 in 10.0 mi East 8.1 mph - N/A   Clear
11:53 AM 91.0 °F 88.9 °F 55.0 °F 29% 29.90 in 10.0 mi Variable 3.5 mph - N/A   Clear
12:53 PM 93.9 °F 91.4 °F 53.1 °F 25% 29.87 in 10.0 mi Variable 5.8 mph - N/A   Clear
1:53 PM 95.0 °F 92.5 °F 53.1 °F 24% 29.86 in 10.0 mi North 11.5 mph - N/A   Clear
2:53 PM 90.0 °F 88.1 °F 55.9 °F 31% 29.86 in 10.0 mi North 18.4 mph 26.5 mph N/A   Clear
3:53 PM 91.0 °F - 50.0 °F 24% 29.84 in 10.0 mi NW 19.6 mph 27.6 mph N/A   Clear
4:53 PM 87.1 °F - 52.0 °F 30% 29.86 in 10.0 mi West 10.4 mph 19.6 mph N/A   Clear
5:53 PM 84.9 °F 83.2 °F 53.1 °F 33% 29.86 in 10.0 mi SW 10.4 mph 18.4 mph N/A   Clear
6:53 PM 82.9 °F 81.8 °F 53.1 °F 36% 29.86 in 10.0 mi Variable 5.8 mph - N/A   Clear
7:53 PM 82.0 °F - 52.0 °F 35% 29.87 in 10.0 mi SSW 5.8 mph - N/A   Clear
8:53 PM 82.0 °F 81.2 °F 53.1 °F 37% 29.89 in 10.0 mi WNW 4.6 mph - N/A   Clear
9:53 PM 81.0 °F 80.4 °F 53.1 °F 38% 29.89 in 10.0 mi SW 4.6 mph - N/A   Clear
10:53 PM 81.0 °F 80.5 °F 54.0 °F 39% 29.88 in 10.0 mi WSW 3.5 mph - N/A   Clear
11:53 PM 80.1 °F 80.0 °F 54.0 °F 40% 29.88 in 10.0 mi Calm Calm - N/A   Partly Cloudy